This is the latest recevied weather packets stored in our database for station/object WY1B. If no packets are shown the sender has not sent any weather packets the latest 10 day(s).
| Time | Temp. | Humidity | Pressure | Rain* | Wind** | Luminosity | Snow |
|---|---|---|---|---|---|---|---|
| 1787787078 | 48.33° C | 14% | 1001.2 hPa | 0 mm | - | 255 W/m² | - |
| 1787786778 | 48.89° C | 13% | 1001 hPa | 0 mm | - | 163 W/m² | - |
| 1787786473 | 48.89° C | 14% | 1001.1 hPa | 0 mm | - | 335 W/m² | - |
| 1787786168 | 49.44° C | 13% | 1001.3 hPa | 0 mm | - | 350 W/m² | - |
| 1787785864 | 49.44° C | 13% | 1001.2 hPa | 0 mm | - | 349 W/m² | - |
| 1787785560 | 48.89° C | 13% | 1001.3 hPa | 0 mm | - | 373 W/m² | - |
| 1787785260 | 49.44° C | 13% | 1001.3 hPa | 0 mm | - | 386 W/m² | - |
| 1787784959 | 49.44° C | 13% | 1001.4 hPa | 0 mm | - | 399 W/m² | - |
| 1787784658 | 50° C | 13% | 1001.1 hPa | 0 mm | - | 414 W/m² | - |
| 1787784357 | 50° C | 13% | 1001.3 hPa | 0 mm | - | 433 W/m² | - |
| 1787784052 | 49.44° C | 13% | 1001.4 hPa | 0 mm | - | 440 W/m² | - |
| 1787783749 | 49.44° C | 13% | 1001.5 hPa | 0 mm | - | 465 W/m² | - |
| 1787783449 | 49.44° C | 13% | 1001.6 hPa | 0 mm | - | 491 W/m² | - |
| 1787783145 | 49.44° C | 14% | 1001.6 hPa | 0 mm | - | 513 W/m² | - |
| 1787782845 | 50° C | 14% | 1001.5 hPa | 0 mm | - | 540 W/m² | - |
| 1787782544 | 48.89° C | 13% | 1001.8 hPa | 0 mm | - | 521 W/m² | - |
| 1787782239 | 48.33° C | 13% | 1001.8 hPa | 0 mm | - | 648 W/m² | - |
| 1787781935 | 47.78° C | 13% | 1002 hPa | 0 mm | - | 688 W/m² | - |
| 1787781630 | 47.22° C | 14% | 1001.8 hPa | 0 mm | - | 637 W/m² | - |
| 1787781328 | 47.22° C | 14% | 1001.8 hPa | 0 mm | - | 379 W/m² | - |
| 1787781027 | 47.78° C | 13% | 1002.1 hPa | 0 mm | - | 312 W/m² | - |
| 1787780721 | 48.89° C | 13% | 1002.1 hPa | 0 mm | - | 318 W/m² | - |
| 1787780421 | 49.44° C | 13% | 1002.1 hPa | 0 mm | - | 458 W/m² | - |
| 1787780117 | 50° C | 12% | 1002.3 hPa | 0 mm | - | 545 W/m² | - |
| 1787779812 | 50° C | 12% | 1002.5 hPa | 0 mm | - | 641 W/m² | - |
* Rain latest hour (hover to see other rain measurements)
** Current wind speed in m/s (hover to see current wind gust speed)